Weather History for KVRB - December, 2012

Change the Weather History Date:

Monday, December 17, 2012

  Actual Average Record
Temperature  
Mean Temperature 73 °F 64 °F  
Max Temperature 81 °F 74 °F 85 °F (1961)
Min Temperature 65 °F 55 °F 30 °F (1968)
Degree Days  
Heating Degree Days 0 4  
Month to date heating degree days 0 45  
Since 1 July heating degree days 52 75  
Cooling Degree Days 8 3  
Month to date cooling degree days 96 58  
Year to date cooling degree days 3515 3369  
Growing Degree Days 23 (Base 50)    
Moisture  
Dew Point 65 °F    
Average Humidity 79    
Maximum Humidity 100    
Minimum Humidity 58    
Precipitation  
Precipitation 0.00 in 0.07 in 2.23 in (1977)
Month to date precipitation 3.33 1.19  
Year to date precipitation 49.72 50.87  
Sea Level Pressure  
Sea Level Pressure 29.95 in    
Wind  
Wind Speed 5 mph (SW)    
Max Wind Speed 14 mph    
Max Gust Speed 18 mph    
Visibility 10 miles    
Events      
T = Trace of Precipitation, MM = Missing Value Source: NWS Daily Summary

Daily Weather History Graph

Daily Weather History Graph

Search for Another Location

Airport or City:

Trip Planner

Search our weather history database for the weather conditions in past years. The results will help you decide how hot, cold, wet, or windy it might be!

Date:

Astronomy

Dec. 17, 2012 Rise Set
Actual Time 7:06 AM EST 5:30 PM EST
Civil Twilight 6:40 AM EST 5:55 PM EST
Nautical Twilight 6:11 AM EST 6:24 PM EST
Astronomical Twilight 5:42 AM EST 6:53 PM EST
Moon 10:34 AM EST (12/17) 10:26 PM EST (12/17)
Length of Visible Light 11h 15m
Length of Day
10h 23m
Waxing Crescent, 24% of the Moon is Illuminated
Dec 17
Waxing Crescent
Dec 20
First Quarter
Dec 28
Full
Jan 4
Last Quarter
Jan 11
New

Hourly Weather History & Observations

Time (EST) Temp. Heat Index Dew Point Humidity Pressure Visibility Wind Dir Wind Speed Gust Speed Precip Events Conditions
12:53 AM 69.1 °F - 66.9 °F 93% 29.98 in 10.0 mi Calm Calm - N/A   Overcast
1:53 AM 69.1 °F - 66.9 °F 93% 29.99 in 10.0 mi SW 3.5 mph - N/A   Overcast
2:53 AM 68.0 °F - 66.9 °F 96% 29.97 in 10.0 mi Calm Calm - N/A   Mostly Cloudy
3:53 AM 66.0 °F - 64.0 °F 93% 29.97 in 9.0 mi West 3.5 mph - N/A   Clear
4:38 AM 66.2 °F - 64.4 °F 94% 29.96 in 8.0 mi West 3.5 mph - N/A   Scattered Clouds
4:53 AM 66.9 °F - 66.0 °F 97% 29.95 in 7.0 mi Calm Calm - N/A   Mostly Cloudy
5:53 AM 68.0 °F - 66.0 °F 93% 29.95 in 10.0 mi SW 3.5 mph - N/A   Overcast
6:53 AM 66.9 °F - 64.9 °F 93% 29.96 in 10.0 mi SSW 4.6 mph - N/A   Clear
7:53 AM 66.9 °F - 64.9 °F 93% 29.97 in 10.0 mi Calm Calm - N/A   Partly Cloudy
8:53 AM 72.0 °F - 66.0 °F 81% 29.99 in 10.0 mi SW 5.8 mph - N/A   Partly Cloudy
9:53 AM 75.0 °F - 64.9 °F 71% 29.98 in 10.0 mi SSW 6.9 mph - N/A   Clear
10:53 AM 75.0 °F - 64.0 °F 69% 29.96 in 10.0 mi SW 6.9 mph - N/A   Clear
11:53 AM 78.1 °F - 66.0 °F 66% 29.94 in 10.0 mi SSW 6.9 mph - N/A   Scattered Clouds
12:53 PM 79.0 °F - 64.0 °F 60% 29.91 in 10.0 mi SSW 11.5 mph - N/A   Scattered Clouds
1:53 PM 80.1 °F 81.7 °F 64.0 °F 58% 29.89 in 10.0 mi SW 10.4 mph - N/A   Scattered Clouds
2:53 PM 80.1 °F 81.7 °F 64.0 °F 58% 29.89 in 10.0 mi SSW 10.4 mph - N/A   Mostly Cloudy
3:53 PM 79.0 °F - 64.9 °F 62% 29.89 in 10.0 mi SSW 8.1 mph - N/A   Scattered Clouds
4:53 PM 77.0 °F - 64.9 °F 66% 29.91 in 10.0 mi SW 5.8 mph - N/A   Scattered Clouds
7:53 PM 72.0 °F - 64.9 °F 78% 29.95 in 10.0 mi SW 4.6 mph - N/A   Overcast
8:53 PM 73.0 °F - 64.0 °F 73% 29.96 in 10.0 mi WSW 6.9 mph - N/A   Overcast
9:53 PM 71.1 °F - 64.0 °F 78% 29.96 in 10.0 mi WSW 4.6 mph - N/A   Mostly Cloudy
10:53 PM 69.1 °F - 64.0 °F 84% 29.95 in 10.0 mi SW 5.8 mph - N/A   Partly Cloudy
11:53 PM 69.1 °F - 64.9 °F 87% 29.94 in 10.0 mi SSW 4.6 mph - N/A   Overcast